Regional Weather Roundup
Issued by NWS Little Rock, AR

Home | Current Version | Previous Version | Text Only | Print | Product List | Glossary On
Versions: 1 2 3 4 5 6 7 8 9 10 11 12 13 14 15 16 17 18 19 20 21 22 23 24 25 26 27
000
ASUS44 KLZK 260005
RWRLZK

WEATHER ROUNDUP FOR ARKANSAS
NATIONAL WEATHER SERVICE LITTLE ROCK AR
700 PM CDT SAT JUN 25 2016

NOTE: "FAIR" INDICATES FEW OR NO CLOUDS BELOW 12,000 FEET WITH NO
SIGNIFICANT WEATHER AND/OR OBSTRUCTIONS TO VISIBILITY.

ARZ001-003-010-029-260100-
NORTHWEST ARKANSAS

CITY           SKY/WX    TMP DP  RH WIND       PRES   REMARKS
FAYETTEVILLE   MOSUNNY   87  71  58 S12       30.02S HX  93
6HR MIN TEMP:  83; 6HR MAX TEMP:  90;

FORT SMITH     SUNNY     93  66  40 SW8       29.97S HX  96
6HR MIN TEMP:  91; 6HR MAX TEMP:  96;

HARRISON       MOSUNNY   87  69  54 S6        30.05F HX  91
6HR MIN TEMP:  84; 6HR MAX TEMP:  89;

BENTONVILLE    SUNNY     88  66  48 SW9       30.03F HX  90
6HR MIN TEMP:  84; 6HR MAX TEMP:  91;

ROGERS         MOSUNNY   87  69  54 S12       30.03S HX  91
6HR MIN TEMP:  86; 6HR MAX TEMP:  91;

SILOAM SPGS    SUNNY     90  64  43 SW9       30.03S HX  91
6HR MIN TEMP:  88; 6HR MAX TEMP:  93;

HIGHFILL       MOSUNNY   89  70  53 S8        30.01F HX  94
6HR MIN TEMP:  85; 6HR MAX TEMP:  93;

SPRINGDALE     MOSUNNY   90  68  48 S15G21    30.04F HX  93
$$

ARZ004-005-016-260100-
NORTH CENTRAL ARKANSAS

CITY           SKY/WX    TMP DP  RH WIND       PRES   REMARKS
BATESVILLE     MOSUNNY   90  70  51 SE3       30.02S HX  95
6HR MIN TEMP:  90; 6HR MAX TEMP:  95;

FLIPPIN        MOSUNNY   90  68  48 CALM      30.00F HX  93
6HR MIN TEMP:  90; 6HR MAX TEMP:  91;

MTN HOME       SUNNY     85  72  65 CALM      30.02S HX  91
6HR MIN TEMP:  85; 6HR MAX TEMP:  90;

$$

ARZ040-041-260100-
WEST CENTRAL ARKANSAS

CITY           SKY/WX    TMP DP  RH WIND       PRES   REMARKS
MENA           SUNNY     90  75  62 S5        30.04S HX 100
MOUNT IDA      SUNNY     90  71  53 VRB3      30.01S HX  96
6HR MIN TEMP:  89; 6HR MAX TEMP:  93;

$$

ARZ009-017-025-026-028-260100-
NORTHEAST ARKANSAS

CITY           SKY/WX    TMP DP  RH WIND       PRES   REMARKS
CORNING          N/A     91  73  55 SW5       30.02R HX 100
JONESBORO      MOSUNNY   92  69  47 S9        30.02R HX  97
6HR MIN TEMP:  92; 6HR MAX TEMP:  97;

NEWPORT        SUNNY     94  69  43 SW9G22    30.02S HX  99
6HR MIN TEMP:  94; 6HR MAX TEMP:  98;

WALNUT RIDGE   SUNNY     91  66  43 SW12      30.00S HX  94
6HR MIN TEMP:  91; 6HR MAX TEMP:  93;

BLYTHEVILLE    SUNNY     93  69  45 SW8       30.03R HX  98
6HR MIN TEMP:  92; 6HR MAX TEMP:  95;

$$

ARZ022-023-033-042-044-260100-
CENTRAL ARKANSAS

CITY           SKY/WX    TMP DP  RH WIND       PRES   REMARKS
LITTLE ROCK    MOSUNNY   92  70  48 S9        30.01S HX  97
6HR MIN TEMP:  92; 6HR MAX TEMP:  96;

N LITTLE ROCK    N/A     90  71  53 SW6       29.99S HX  97
6HR MIN TEMP:  90; 6HR MAX TEMP:  95;

JACKSONVILLE   SUNNY     92  71  49 S7        30.00S HX  98
6HR MIN TEMP:  92; 6HR MAX TEMP:  97;

SEARCY         SUNNY     91  73  55 S5        30.02S HX 100
6HR MIN TEMP:  90; 6HR MAX TEMP:  93;

HOT SPRINGS    SUNNY     91  72  53 SW7       30.02S HX  98
6HR MIN TEMP:  91; 6HR MAX TEMP:  95;

RUSSELLVILLE   MOSUNNY   92  69  47 CALM      29.98F HX  97
6HR MIN TEMP:  91; 6HR MAX TEMP:  94;

$$

ARZ036-260100-
EAST ARKANSAS

CITY           SKY/WX    TMP DP  RH WIND       PRES   REMARKS
$$

ARZ050-053-066-070-073-260100-
SOUTHWEST ARKANSAS

CITY           SKY/WX    TMP DP  RH WIND       PRES   REMARKS
ARKADELPHIA    FAIR      94  73  50 SW8       30.01S HX 103
6HR MIN TEMP:  92; 6HR MAX TEMP:  97;

CAMDEN         SUNNY     93  72  49 S5        30.01S HX 100
TEXARKANA      SUNNY     91  72  53 S6        30.01S HX  98
6HR MIN TEMP:  90; 6HR MAX TEMP:  93;

EL DORADO      SUNNY     90  73  57 S5        30.02F HX  98
6HR MIN TEMP:  88; 6HR MAX TEMP:  93;

DE QUEEN       SUNNY     91  74  57 S6        29.98S HX 100
6HR MIN TEMP:  88; 6HR MAX TEMP:  93;

$$

ARZ056-057-069-260100-
SOUTHEAST ARKANSAS

CITY           SKY/WX    TMP DP  RH WIND       PRES   REMARKS
PINE BLUFF     SUNNY     90  71  53 S9        30.02S HX  96
6HR MIN TEMP:  90; 6HR MAX TEMP:  93;

STUTTGART      SUNNY     93  70  46 S10       30.02S HX  99
6HR MIN TEMP:  93; 6HR MAX TEMP:  95;

MONTICELLO     MOSUNNY   92  74  55 S5        30.02F HX 101
6HR MIN TEMP:  92; 6HR MAX TEMP:  95;


$$






USA.gov is the U.S. government's official web portal to all federal, state and local government web resources and services.